Content
SEND FEEDBACK

Daily
Averages
Monthly
Summary
Canada

YELLOWKNIFE, NORTHWEST TERRITORIES


Home > North America > Canada > Northwest Territories
Elevation: 676 feet     Latitude: 62 28N     Longitude: 114 27W

WEATHER
 
SELECT A DAY
Number of Records: 190,971;   Date Range: 1/1/95 - 8/19/14
 
SHARE

PRINT THIS DATA

[ ← Previous Day ]
WEATHER ALMANAC - OCTOBER 15, 2013
[ Next Day → ]
[ °C ]   °F
Weather ElementAverageHighLow
Temperature39.1 °F46.4 °F (2:00 pm)35.6 °F (12:00 am)
Dewpoint32 °F34 °F (12:00 pm)28.4 °F (6:00 pm)
Humidity76.2 %93 % (5:54 am)44 % (6:00 pm)
Barometer29.86 in29.99 in (9:52 pm)29.75 in (3:00 am)
Wind Speed9.9 mph17.3 mph (3:00 pm)
Wind Gust25.3 mph (2:00 pm)
Weather ElementAverage
Visibility15 mi
Wind DirectionNNW (323.8 °)

Weather ElementTotal
Precipitation---
Heating Degree Days24 (Base 65)
Averaged from 29 records on October 15, 2013
WEATHER CONDITIONS BREAKOUT
WIND DIRECTION BREAKOUT
WEATHER BY HOUR - OCTOBER 15, 2013
[ °C ]   °F
Local TimeTemperatureDewpointHumidityBarometerVisibilityWind DirectionWind SpeedGust SpeedPrecipitationEventsConditions
12:00 AM35.6 °F32.0 °F87 %29.76 in15.0 miWNW (290°)4.6 mphOvercast
1:00 AM37.4 °F32.0 °F81 %29.76 in15.0 miNW (310°)5.8 mphOvercast
2:00 AM37.4 °F33.8 °F87 %29.76 in15.0 miNNW (330°)4.6 mphOvercast
3:00 AM37.4 °F33.8 °F87 %29.75 in15.0 miNorth (350°)6.9 mphOvercast
4:00 AM37.4 °F33.8 °F87 %29.75 in15.0 miNorth (350°)6.9 mphOvercast
5:00 AM37.4 °F33.8 °F87 %29.75 in15.0 miNorth (350°)9.2 mphOvercast
5:54 AM35.6 °F33.8 °F93 %29.75 in15.0 miNNW (330°)6.9 mphOvercast
6:00 AM35.6 °F33.8 °F93 %29.76 in15.0 miNNW (330°)5.8 mphOvercast
6:00 AM36.0 °F33.0 °F85 %29.76 in15.0 miNNW (330°)6.9 mphOvercast
7:00 AM35.6 °F33.8 °F93 %29.77 in15.0 miNNW (330°)6.9 mphOvercast
8:00 AM35.6 °F33.8 °F93 %29.77 in15.0 miNNW (340°)6.9 mphMostly Cloudy
9:00 AM35.6 °F32.0 °F87 %29.80 in15.0 miNW (320°)9.2 mphMostly Cloudy
10:00 AM37.4 °F33.8 °F87 %29.82 in15.0 miNNW (340°)12.7 mphMostly Cloudy
11:00 AM37.4 °F33.8 °F87 %29.84 in15.0 miNNW (340°)11.5 mphMostly Cloudy
12:00 PM39.2 °F33.8 °F81 %29.86 in15.0 miNNW (330°)12.7 mph18.4 mphMostly Cloudy
12:00 PM40.0 °F34.0 °F72 %29.87 in15.0 miNNW (330°)13.8 mphScattered Clouds
1:00 PM42.8 °F33.8 °F70 %29.88 in15.0 miNNW (340°)15.0 mphMostly Cloudy
2:00 PM46.4 °F32.0 °F57 %29.88 in15.0 miNW (320°)15.0 mph25.3 mphMostly Cloudy
3:00 PM44.6 °F32.0 °F61 %29.91 in15.0 miNNW (330°)17.3 mph24.2 mphMostly Cloudy
4:00 PM46.4 °F30.2 °F53 %29.92 in15.0 miNNW (330°)17.3 mph25.3 mphMostly Cloudy
5:00 PM46.4 °F30.2 °F53 %29.95 in15.0 miNNW (330°)15.0 mph24.2 mphPartly Cloudy
6:00 PM44.6 °F28.4 °F53 %29.96 in15.0 miNNW (330°)11.5 mphMostly Cloudy
6:00 PM44.0 °F29.0 °F44 %29.97 in15.0 miNNW (330°)12.7 mphScattered Clouds
7:00 PM41.0 °F30.2 °F65 %29.97 in15.0 miWNW (290°)8.1 mphMostly Cloudy
8:00 PM39.2 °F28.4 °F65 %29.98 in15.0 miWNW (300°)8.1 mphScattered Clouds
9:00 PM37.4 °F28.4 °F70 %29.98 in15.0 miWNW (300°)9.2 mphPartly Cloudy
9:52 PM35.6 °F30.2 °F81 %29.99 in15.0 miWNW (290°)8.1 mphPartly Cloudy
10:00 PM35.6 °F30.2 °F81 %29.99 in15.0 miWNW (300°)8.1 mphPartly Cloudy
11:00 PM39.2 °F30.2 °F70 %29.99 in15.0 miWNW (300°)10.4 mphScattered Clouds
Hourly data recorded from CYZF, located miles away from Yellowknife, Northwest Territories







STORIES FROM OUR PARTNERS